TimeCST,TemperatureF,Dew PointF,Humidity,Sea Level PressureIn,VisibilityMPH,Wind Direction,Wind SpeedMPH,Gust SpeedMPH,PrecipitationIn,Events,Conditions,WindDirDegrees,DateUTC
12:53 AM,18.0,6.1,60,30.33,10.0,SE,4.6,-,N/A,,Clear,130,2013-01-23 06:53:00
1:53 AM,17.1,7.0,65,30.31,10.0,SE,3.5,-,N/A,,Clear,140,2013-01-23 07:53:00
2:53 AM,17.1,7.0,65,30.31,10.0,Calm,Calm,-,N/A,,Clear,0,2013-01-23 08:53:00
3:53 AM,15.1,7.0,70,30.29,10.0,SE,3.5,-,N/A,,Clear,130,2013-01-23 09:53:00
4:53 AM,15.1,7.0,70,30.28,10.0,Calm,Calm,-,N/A,,Clear,0,2013-01-23 10:53:00
5:53 AM,14.0,6.1,71,30.28,10.0,SSE,5.8,-,N/A,,Clear,160,2013-01-23 11:53:00
6:53 AM,12.9,6.1,74,30.27,10.0,South,4.6,-,N/A,,Clear,170,2013-01-23 12:53:00
7:53 AM,14.0,7.0,74,30.26,10.0,South,3.5,-,N/A,,Clear,170,2013-01-23 13:53:00
8:53 AM,19.0,10.0,68,30.27,10.0,Calm,Calm,-,N/A,,Clear,0,2013-01-23 14:53:00
9:53 AM,24.1,12.9,62,30.28,10.0,SSW,3.5,-,N/A,,Clear,210,2013-01-23 15:53:00
10:53 AM,28.9,15.1,56,30.28,9.0,Calm,Calm,-,N/A,,Clear,0,2013-01-23 16:53:00
11:53 AM,36.0,17.1,46,30.26,10.0,SSE,4.6,-,N/A,,Clear,150,2013-01-23 17:53:00
12:53 PM,41.0,19.0,41,30.24,10.0,NNW,13.8,-,N/A,,Clear,330,2013-01-23 18:53:00
1:53 PM,42.1,18.0,38,30.23,10.0,NW,11.5,-,N/A,,Clear,310,2013-01-23 19:53:00
2:53 PM,43.0,19.0,38,30.24,10.0,North,10.4,-,N/A,,Clear,350,2013-01-23 20:53:00
3:53 PM,42.1,19.9,41,30.25,10.0,NNW,13.8,-,N/A,,Clear,340,2013-01-23 21:53:00
4:53 PM,36.0,19.0,50,30.29,10.0,North,15.0,-,N/A,,Clear,360,2013-01-23 22:53:00
5:53 PM,33.1,18.0,54,30.32,10.0,North,11.5,-,N/A,,Clear,360,2013-01-23 23:53:00
6:53 PM,28.9,16.0,58,30.36,10.0,North,10.4,-,N/A,,Clear,10,2013-01-24 00:53:00
7:53 PM,28.0,16.0,61,30.40,10.0,North,10.4,-,N/A,,Clear,360,2013-01-24 01:53:00
8:53 PM,26.1,14.0,60,30.42,10.0,North,12.7,-,N/A,,Clear,360,2013-01-24 02:53:00
9:53 PM,24.1,12.9,62,30.46,10.0,North,12.7,-,N/A,,Clear,10,2013-01-24 03:53:00
10:53 PM,21.0,9.0,60,30.48,10.0,NNE,15.0,-,N/A,,Clear,20,2013-01-24 04:53:00
11:53 PM,19.0,3.0,50,30.51,10.0,NNE,13.8,-,N/A,,Clear,20,2013-01-24 05:53:00